Wind_Speed
7 6 9 24 34 39 46 43 26 9 11 14 9 18 32 47 69 74 68 62 57 54 49 48 52 55 54 55 58 58 58 55 53 53 54 55 55 56 59 61 64 68 71 75
11 9 16 20 33 32 38 38 35 34 27 11 10 5 23 35 54 71 66 56 54 50 49 50 52 54 53 53 55 55 56 54 53 53 53 54 54 56 60 63 67 72 76 80
6 12 11 20 26 30 34 37 34 30 27 25 18 8 7 24 42 55 56 55 52 51 49 49 52 54 49 52 53 55 54 52 50 50 51 53 54 58 61 66 70 74 78 82
8 6 5 17 22 26 31 35 32 29 25 24 24 25 28 34 38 41 43 43 46 50 49 50 52 51 48 52 52 51 50 49 49 49 52 53 56 60 65 70 74 78 81 85
9 5 10 7 15 24 26 29 31 28 27 24 20 25 31 32 34 35 35 42 42 41 42 45 45 46 46 46 46 46 47 47 48 51 53 56 61 65 70 74 77 80 85 88
11 4 1 8 10 11 21 24 26 23 26 22 24 17 22 29 29 31 28 21 22 26 30 34 38 41 40 40 40 42 43 46 50 53 55 60 65 69 72 76 80 85 88 93
12 7 5 3 1 4 10 20 21 21 16 16 14 14 12 12 17 17 17 16 20 25 29 33 34 35 36 37 39 41 44 46 49 53 58 62 67 71 75 80 84 89 93 97
12 10 9 15 11 11 8 11 16 11 12 9 12 8 9 9 10 15 17 17 20 24 27 30 30 32 34 36 38 41 43 47 52 57 61 66 71 75 80 84 88 92 99 100
11 9 9 13 15 11 8 11 16 10 2 8 8 5 8 7 7 12 15 19 22 24 26 28 30 31 33 36 39 42 47 51 56 61 66 70 75 80 83 88 93 96 92 94
17 13 11 13 13 13 8 6 12 14 7 9 12 7 5 7 7 13 15 20 23 24 26 27 29 32 35 38 43 47 52 56 60 66 71 75 79 84 89 93 90 89 90 86
18 15 15 12 11 13 11 9 13 15 12 12 10 11 12 13 15 17 20 25 26 26 26 29 32 36 40 44 48 52 56 61 66 71 75 80 85 88 86 85 87 84 78 79
15 14 14 12 11 11 10 12 13 13 12 11 11 11 15 16 18 21 24 28 29 30 32 35 38 41 45 49 53 58 62 67 72 76 81 82 82 82 82 79 74 73 77 81
13 12 10 11 10 11 9 8 11 12 12 11 13 15 16 20 25 28 31 33 34 36 38 40 43 47 51 55 59 64 69 73 75 75 75 77 78 75 72 71 73 77 82 88
8 9 10 11 11 13 13 12 10 11 15 19 20 20 21 23 25 28 31 34 37 40 42 45 49 53 56 60 63 66 67 67 70 73 75 72 69 66 69 74 80 87 92 95
6 6 8 9 12 14 16 17 17 17 17 16 17 18 20 22 24 27 30 34 37 41 45 48 50 51 54 58 60 63 66 69 72 70 66 63 64 69 74 79 84 89 94 100
5 6 6 9 11 12 14 15 16 15 15 16 20 23 26 28 28 29 30 32 35 37 40 43 47 51 54 58 62 65 68 67 62 58 59 64 69 74 80 84 90 94 98 104
7 7 6 6 5 7 10 10 10 10 11 13 15 16 19 21 23 24 27 30 33 37 42 47 52 55 59 63 65 62 55 54 56 59 65 70 75 80 85 90 94 99 105 104
17 15 14 14 14 14 14 14 15 17 18 20 21 22 22 24 26 28 31 35 39 43 49 52 56 60 58 52 48 49 52 56 61 66 71 76 81 86 91 95 100 103 99 95
18 16 14 17 19 19 21 20 20 20 21 23 24 24 26 28 32 35 38 41 46 51 53 56 52 45 43 46 50 54 58 62 67 72 78 83 89 93 97 100 100 95 91 89
20 17 14 14 15 15 17 20 22 24 26 28 30 32 35 38 39 40 43 48 52 53 48 42 42 45 48 52 55 59 64 69 74 79 84 90 95 99 99 96 90 87 84 81
21 18 18 18 20 22 23 26 28 31 34 37 39 41 42 42 43 46 50 50 47 39 40 44 47 50 54 58 62 67 72 77 81 86 91 96 100 98 94 86 83 79 77 71
24 24 25 26 27 29 32 35 36 38 42 46 47 47 46 47 48 49 46 41 41 44 46 49 53 56 60 65 70 74 79 84 89 93 97 98 96 89 84 81 78 73 67 60
32 32 33 35 37 38 36 36 37 38 37 35 37 39 40 41 42 39 39 43 46 49 52 55 59 63 68 72 77 82 87 92 95 96 96 93 85 80 77 75 69 64 57 52
36 36 36 36 36 37 36 35 35 35 32 30 28 29 30 33 37 41 44 48 51 55 58 62 66 71 76 81 85 89 92 95 96 94 88 83 78 74 71 66 60 55 48 46
39 39 39 38 38 39 39 39 39 38 37 37 37 38 40 42 45 48 51 54 58 62 65 70 74 79 84 88 91 93 93 94 90 84 80 75 72 68 66 58 52 46 43 42
45 45 45 45 45 46 45 45 44 43 42 43 44 45 47 49 52 55 59 62 66 69 73 78 82 86 90 92 92 91 90 85 83 79 74 71 68 64 56 50 44 42 39 35
50 49 49 49 48 48 48 48 49 49 50 51 53 54 55 57 60 63 66 70 73 77 80 85 87 90 91 91 90 86 82 81 78 75 73 69 64 55 49 43 40 38 33 30
Wind_Direction
264 352 338 3 6 359 3 1 14 11 214 179 196 223 222 216 211 211 210 210 216 222 224 223 225 229 233 228 222 224 226 232 237 244 250 256 262 267 272 277 280 282 285 287
286 44 8 7 9 355 11 19 19 24 37 63 79 197 215 210 205 206 210 211 218 225 224 221 225 229 233 226 222 224 227 233 239 246 254 260 266 272 276 280 283 285 286 288
73 39 18 20 22 15 22 32 38 39 43 48 69 81 203 195 194 201 206 211 215 220 219 221 224 229 230 222 222 223 228 235 243 252 259 266 271 277 281 283 285 287 288 290
94 35 56 20 30 14 28 40 48 53 64 76 94 118 138 162 178 190 198 204 208 212 216 220 225 230 226 219 221 223 231 239 248 256 263 269 275 280 282 284 285 288 292 293
161 91 34 42 11 19 31 42 41 54 68 78 108 132 142 154 174 193 195 203 208 214 219 223 227 224 218 219 222 226 236 244 252 260 267 273 277 281 283 286 290 293 295 296
163 177 37 19 355 13 6 31 40 43 50 71 94 119 149 165 182 193 203 211 209 207 211 216 214 212 216 218 224 236 245 252 258 265 272 276 279 283 287 291 293 294 295 297
188 222 263 292 321 20 323 345 18 52 61 67 81 75 106 152 189 193 190 194 195 196 200 204 208 213 216 224 236 245 252 258 265 271 276 280 283 287 290 292 294 295 297 300
205 213 268 281 273 277 251 303 335 357 58 91 105 106 102 117 152 180 183 188 191 198 204 208 211 216 227 238 247 254 261 267 273 277 281 284 286 289 291 293 296 298 299 301
216 198 236 246 277 277 259 236 255 295 11 122 135 112 101 117 152 173 187 192 194 200 206 213 222 233 243 251 258 264 269 273 277 280 282 285 288 291 294 295 297 299 300 301
201 203 217 234 245 247 264 223 230 241 176 166 167 181 186 183 197 195 199 208 204 209 220 231 240 247 253 259 264 268 272 275 279 283 285 289 292 293 295 297 298 299 301 302
213 201 209 212 224 225 208 149 162 176 168 183 188 198 205 209 208 212 213 214 219 227 236 244 250 255 259 263 268 273 277 281 284 288 289 290 292 294 296 298 299 301 302 304
211 200 206 209 211 207 188 174 167 165 177 189 201 210 214 216 218 221 223 226 233 240 246 252 258 263 268 273 277 280 283 286 287 289 290 292 294 297 299 300 301 303 304 305
210 209 206 212 219 213 206 201 188 185 179 183 196 208 217 219 223 228 231 236 243 249 256 263 267 272 276 278 281 282 285 287 288 289 292 296 300 301 302 302 303 304 304 305
191 201 206 207 208 215 217 222 226 209 201 201 205 210 215 223 233 239 242 247 252 258 264 269 272 276 278 281 282 283 286 288 291 294 297 299 300 301 303 305 307 307 308 310
200 180 184 194 200 205 208 217 225 227 229 227 224 226 231 236 241 245 250 255 260 264 267 271 275 277 279 282 285 288 291 293 295 298 299 300 301 303 305 305 305 307 309 312
180 155 156 177 196 211 211 215 219 224 231 236 242 243 242 244 246 250 255 260 264 268 273 278 282 284 287 290 292 293 294 298 299 300 301 303 304 305 305 306 308 311 313 313
225 224 223 231 233 229 213 202 203 208 211 220 225 231 238 245 254 263 269 274 279 284 287 288 289 292 292 293 295 298 300 301 302 304 305 305 306 307 308 309 312 313 314 312
249 236 238 237 239 240 233 230 221 222 226 231 235 242 252 260 267 274 281 286 290 292 294 294 295 296 298 300 302 302 303 305 306 305 305 307 308 309 311 313 314 314 312 312
222 215 225 234 238 249 238 239 243 244 247 250 256 266 272 276 279 281 284 289 295 297 298 299 300 302 304 304 304 305 306 306 306 307 309 311 312 313 314 315 315 313 312 314
210 215 220 229 238 246 251 254 255 257 259 261 263 268 272 276 281 286 291 295 298 302 301 301 303 303 303 304 305 306 306 307 310 312 312 313 314 314 315 315 313 312 315 316
229 234 243 250 256 262 267 271 272 272 273 274 275 276 277 280 284 287 294 300 303 302 302 301 301 303 303 305 306 307 309 311 312 313 313 314 314 316 315 314 314 317 317 317
247 252 256 260 264 268 276 281 281 283 283 277 273 273 277 281 287 293 299 299 298 298 299 301 301 302 305 307 309 311 311 312 313 313 313 314 315 315 315 314 317 318 318 318
257 259 262 265 269 274 274 275 280 288 293 288 281 278 280 284 288 292 293 295 297 298 299 300 303 307 309 311 311 312 313 313 312 313 314 315 315 316 316 318 318 319 319 319
255 256 256 258 261 266 269 272 276 283 291 296 295 292 290 290 291 292 292 294 296 299 302 306 309 309 310 310 311 312 312 313 314 315 315 316 317 317 320 320 320 320 320 320
254 257 259 261 263 265 267 271 276 280 283 285 287 288 289 290 290 293 295 298 301 304 307 308 308 309 310 311 312 313 313 315 315 315 317 318 320 322 322 322 322 321 322 322
248 251 254 258 263 266 269 272 275 278 280 283 285 287 290 292 295 298 301 303 304 305 306 307 307 308 309 311 313 314 317 316 316 318 319 321 324 324 323 323 323 322 321 321
253 256 258 262 264 266 268 271 274 278 280 283 286 290 293 296 297 299 300 302 303 304 305 306 308 309 310 312 314 317 317 317 318 320 322 324 325 325 324 324 323 322 322 324
Height
10408 10402 10398 10393 10386 10374 10357 10340 10329 10323 10321 10320 10324 10335 10348 10359 10377 10395 10413 10432 10450 10461 10469 10478 10485 10493 10500 10507 10515 10522 10529 10535 10540 10543 10544 10545 10545 10544 10542 10539 10535 10530 10525 10519
10406 10402 10398 10394 10386 10376 10363 10350 10338 10330 10327 10325 10326 10338 10350 10362 10378 10395 10415 10434 10447 10456 10464 10471 10479 10487 10495 10502 10510 10517 10523 10527 10531 10533 10535 10536 10535 10533 10530 10526 10521 10516 10509 10503
10405 10402 10398 10395 10388 10381 10370 10359 10350 10344 10340 10334 10336 10345 10356 10370 10385 10403 10420 10431 10441 10450 10459 10466 10473 10481 10489 10497 10504 10509 10515 10519 10523 10526 10526 10525 10523 10520 10517 10512 10507 10501 10493 10485
10406 10403 10400 10397 10391 10384 10379 10372 10364 10358 10354 10352 10354 10359 10368 10381 10395 10407 10417 10428 10437 10445 10452 10460 10468 10475 10482 10489 10496 10503 10510 10514 10516 10517 10516 10514 10512 10508 10504 10498 10492 10485 10477 10467
10405 10404 10402 10399 10394 10389 10385 10383 10377 10373 10370 10371 10372 10376 10382 10392 10403 10410 10419 10426 10434 10442 10449 10456 10462 10470 10478 10486 10494 10500 10505 10507 10508 10507 10506 10503 10499 10495 10490 10484 10476 10467 10458 10448
10405 10405 10403 10402 10399 10396 10390 10391 10388 10384 10383 10383 10385 10391 10396 10401 10407 10413 10421 10427 10432 10438 10446 10454 10461 10469 10477 10485 10491 10496 10498 10499 10499 10498 10495 10491 10487 10482 10475 10467 10458 10448 10439 10428
10405 10404 10404 10403 10402 10401 10397 10395 10393 10395 10395 10395 10397 10400 10406 10410 10414 10419 10424 10428 10433 10440 10447 10454 10462 10469 10476 10482 10487 10489 10491 10491 10489 10486 10483 10479 10473 10466 10458 10449 10440 10428 10419 10407
10405 10405 10404 10402 10402 10402 10402 10399 10397 10399 10402 10403 10405 10407 10410 10414 10418 10423 10427 10432 10437 10444 10451 10457 10463 10469 10475 10479 10481 10482 10482 10480 10477 10474 10470 10464 10457 10449 10441 10431 10422 10411 10396 10381
10405 10404 10403 10402 10401 10400 10400 10402 10403 10402 10405 10408 10409 10411 10414 10418 10423 10427 10432 10437 10441 10447 10453 10458 10463 10467 10471 10473 10473 10472 10471 10468 10465 10460 10455 10448 10440 10432 10423 10413 10402 10390 10377 10363
10402 10403 10401 10400 10400 10400 10399 10399 10402 10404 10406 10409 10411 10414 10417 10421 10426 10430 10435 10441 10445 10449 10453 10457 10461 10463 10464 10464 10463 10461 10458 10455 10451 10445 10439 10432 10423 10414 10405 10394 10383 10370 10358 10344
10396 10398 10398 10399 10400 10401 10401 10400 10402 10404 10406 10409 10412 10416 10420 10423 10427 10432 10436 10441 10445 10447 10450 10453 10454 10455 10454 10453 10451 10449 10446 10441 10435 10429 10422 10414 10404 10394 10384 10374 10363 10350 10337 10325
10392 10394 10395 10396 10398 10400 10401 10402 10403 10405 10407 10409 10412 10416 10419 10423 10426 10431 10435 10438 10441 10443 10445 10445 10446 10445 10444 10442 10439 10435 10431 10425 10419 10412 10404 10394 10384 10375 10365 10352 10341 10332 10321 10310
10391 10391 10392 10394 10396 10398 10400 10402 10404 10406 10408 10410 10413 10416 10419 10422 10426 10429 10432 10434 10435 10437 10438 10437 10436 10435 10433 10429 10425 10420 10415 10410 10402 10393 10385 10376 10366 10355 10342 10333 10325 10315 10302 10288
10388 10390 10391 10392 10394 10396 10398 10401 10402 10405 10407 10409 10412 10415 10418 10420 10422 10424 10426 10428 10429 10429 10429 10428 10425 10422 10419 10415 10410 10404 10399 10392 10384 10376 10367 10358 10349 10339 10330 10318 10304 10287 10273 10263
10387 10389 10390 10391 10392 10393 10395 10397 10399 10402 10404 10407 10409 10411 10413 10415 10416 10418 10419 10420 10420 10419 10418 10416 10413 10409 10404 10399 10395 10389 10382 10374 10366 10359 10350 10342 10333 10323 10313 10301 10288 10274 10260 10241
10386 10387 10389 10390 10391 10392 10393 10395 10397 10399 10401 10404 10406 10407 10408 10409 10410 10411 10411 10411 10410 10409 10407 10404 10401 10396 10391 10386 10380 10372 10365 10357 10350 10342 10335 10326 10316 10306 10294 10281 10266 10252 10237 10220
10384 10385 10387 10389 10390 10392 10393 10394 10395 10397 10398 10399 10400 10401 10402 10403 10404 10404 10403 10402 10401 10399 10396 10392 10387 10383 10377 10370 10363 10356 10349 10343 10336 10328 10319 10309 10299 10287 10273 10259 10245 10228 10210 10191
10381 10382 10384 10386 10387 10388 10390 10391 10392 10393 10394 10395 10396 10397 10397 10397 10397 10396 10395 10393 10391 10388 10384 10379 10374 10368 10362 10355 10349 10344 10337 10330 10321 10312 10302 10292 10279 10266 10252 10236 10221 10204 10183 10165
10377 10378 10380 10382 10383 10384 10386 10387 10387 10388 10388 10389 10389 10389 10389 10389 10388 10387 10385 10383 10380 10376 10370 10365 10360 10355 10350 10344 10337 10330 10323 10314 10305 10295 10283 10270 10256 10243 10229 10214 10196 10178 10163 10148
10372 10373 10375 10377 10378 10380 10381 10382 10383 10383 10383 10382 10382 10382 10381 10380 10379 10377 10374 10372 10367 10362 10357 10352 10348 10343 10337 10331 10324 10316 10307 10297 10287 10275 10262 10249 10235 10221 10205 10189 10172 10158 10144 10131
10366 10368 10370 10371 10373 10374 10374 10375 10376 10376 10376 10375 10374 10373 10372 10370 10368 10366 10363 10359 10354 10350 10346 10341 10336 10330 10323 10316 10308 10299 10289 10278 10267 10255 10242 10228 10213 10197 10182 10166 10152 10140 10126 10114
10360 10362 10363 10364 10365 10365 10366 10366 10366 10365 10364 10363 10362 10361 10360 10358 10356 10354 10351 10347 10343 10338 10334 10329 10322 10316 10309 10301 10292 10282 10271 10259 10247 10235 10221 10206 10191 10176 10160 10146 10134 10122 10111 10098
10352 10353 10354 10355 10356 10356 10356 10356 10356 10355 10353 10349 10347 10346 10346 10346 10344 10341 10338 10335 10331 10327 10321 10315 10309 10301 10292 10283 10273 10263 10251 10238 10225 10212 10198 10183 10169 10156 10142 10129 10118 10106 10096 10085
10341 10342 10343 10344 10345 10346 10346 10346 10346 10345 10343 10341 10339 10338 10336 10334 10332 10330 10327 10323 10319 10313 10307 10300 10292 10283 10275 10265 10254 10243 10230 10217 10203 10189 10176 10164 10151 10138 10126 10113 10103 10093 10083 10075
10330 10331 10332 10333 10334 10336 10336 10337 10337 10336 10334 10332 10331 10329 10327 10325 10322 10319 10315 10310 10304 10298 10291 10283 10275 10265 10255 10245 10234 10223 10209 10195 10181 10167 10155 10143 10132 10122 10111 10099 10090 10081 10073 10066
10319 10320 10321 10323 10324 10325 10326 10326 10325 10324 10323 10321 10319 10317 10315 10313 10309 10304 10300 10294 10288 10282 10274 10265 10256 10247 10236 10225 10214 10201 10188 10173 10160 10150 10139 10128 10117 10106 10096 10087 10079 10072 10065 10059
10307 10309 10310 10311 10312 10313 10313 10312 10311 10311 10309 10308 10305 10303 10301 10298 10294 10289 10284 10278 10272 10264 10256 10247 10238 10227 10215 10205 10194 10182 10168 10155 10144 10132 10123 10113 10102 10092 10084 10077 10070 10064 10058 10053